Location: Unspecified
(0.0000°N, 0.0000°E)
Time: 17:48:51
(UTC+00:00)

Vanguard 3 - Pass Details

Date: 02 February 2023
Orbit: 509 x 3249 km, 33.3° (Epoch: 20 March)

Event Time Altitude Azimuth Distance (km) Brightness Sun altitude
Rises 04:35:18 0° 292° (WNW) 7,182 - -23.5°
Reaches altitude 10° 04:40:43 10° 287° (WNW) 6,030 - -22.2°
Exits shadow 04:47:19 25° 276° (W) 4,620 10.3 -20.6°
Maximum altitude 04:57:31 46° 220° (SW) 2,995 9.8 -18.2°
Drops below altitude 10° 05:08:18 10° 149° (SSE) 3,952 11.4 -15.6°
Sets 05:11:05 0° 142° (SE) 4,615 12.0 -14.9°
